| time (UTC) | temp C | wind direction | speed KPH | gust KPH | rain 1hr cm | rain 24hr cm | rain mn cm | humidity % | barometer mb |
| 20260903104516 | 15 | 340 | 0.0 | 1.6 | 0.03 | 0.20 | 0.20 | 97 | 1015.3 |
| 20260903103015 | 15 | 340 | 0.0 | 1.6 | 0.05 | 0.20 | 0.20 | 97 | 1015.3 |
| 20260903101514 | 15 | 341 | 0.0 | 0.0 | 0.08 | 0.20 | 0.20 | 97 | 1015.2 |
| 20260903100022 | 15 | 341 | 0.0 | 1.6 | 0.13 | 0.20 | 0.20 | 97 | 1015.1 |
| 20260903094511 | 15 | 341 | 0.0 | 1.6 | 0.10 | 0.18 | 0.18 | 96 | 1015.2 |
| 20260903093009 | 15 | 341 | 0.0 | 0.0 | 0.08 | 0.15 | 0.15 | 96 | 1015.4 |
| 20260903091508 | 16 | 342 | 0.0 | 0.0 | 0.05 | 0.13 | 0.13 | 96 | 1015.6 |
| 20260903090009 | 16 | 342 | 0.0 | 0.0 | 0.08 | 0.08 | 0.08 | 96 | 1015.7 |
| 20260903084505 | 16 | 342 | 0.0 | 1.6 | 0.08 | 0.08 | 0.08 | 95 | 1015.7 |
| 20260903083003 | 16 | 296 | 0.0 | 1.6 | 0.08 | 0.08 | 0.08 | 93 | 1015.7 |
| 20260903081600 | 17 | 296 | 0.0 | 0.0 | 0.08 | 0.08 | 0.08 | 90 | 1015.9 |
| 20260903080055 | 17 | 296 | 0.0 | 0.0 | 0.00 | 0.00 | 0.00 | 86 | 1015.9 |
| 20260903074555 | 17 | 85 | 0.0 | 3.2 | 0.00 | 0.00 | 0.00 | 85 | 1015.6 |
| 20260903073052 | 17 | 96 | 0.0 | 3.2 | 0.00 | 0.00 | 0.00 | 85 | 1016.1 |
| 20260903071616 | 17 | 97 | 0.0 | 0.0 | 0.00 | 0.00 | 0.00 | 86 | 1016.0 |
| 20260903070100 | 17 | 87 | 0.0 | 1.6 | 0.00 | 0.00 | 0.00 | 85 | 1016.2 |
| 20260903064546 | 17 | 112 | 0.0 | 1.6 | 0.00 | 0.00 | 0.00 | 86 | 1016.5 |
| 20260903063146 | 17 | 112 | 0.0 | 1.6 | 0.00 | 0.00 | 0.00 | 86 | 1016.9 |
| 20260903061543 | 17 | 18 | 0.0 | 1.6 | 0.00 | 0.00 | 0.00 | 86 | 1017.4 |
| 20260903060040 | 17 | 78 | 0.0 | 1.6 | 0.00 | 0.00 | 0.00 | 86 | 1017.8 |
| 20260903054543 | 17 | 78 | 0.0 | 1.6 | 0.00 | 0.00 | 0.00 | 87 | 1018.1 |
| 20260903053037 | 17 | 66 | 0.0 | 1.6 | 0.00 | 0.00 | 0.00 | 87 | 1018.2 |
| 20260903051538 | 17 | 67 | 0.0 | 1.6 | 0.00 | 0.00 | 0.00 | 87 | 1017.9 |
| 20260903050041 | 17 | 69 | 0.0 | 0.0 | 0.00 | 0.00 | 0.00 | 89 | 1017.8 |
| 20260903044532 | 17 | 87 | 0.0 | 0.0 | 0.00 | 0.00 | 0.00 | 90 | 1018.4 |
| 20260903043031 | 17 | 87 | 0.0 | 0.0 | 0.00 | 0.00 | 0.00 | 91 | 1018.6 |
| 20260903041530 | 17 | 87 | 0.0 | 0.0 | 0.00 | 0.00 | 0.00 | 91 | 1018.4 |
| 20260903040027 | 17 | 87 | 0.0 | 0.0 | 0.00 | 0.00 | 0.00 | 91 | 1018.4 |
| 20260903034528 | 17 | 87 | 0.0 | 0.0 | 0.00 | 0.00 | 0.00 | 90 | 1018.4 |
| 20260903033024 | 17 | 87 | 0.0 | 0.0 | 0.00 | 0.00 | 0.00 | 90 | 1018.7 |
| 20260903031522 | 17 | 87 | 0.0 | 0.0 | 0.00 | 0.00 | 0.00 | 90 | 1019.0 |
| 20260903030021 | 17 | 87 | 0.0 | 0.0 | 0.00 | 0.00 | 0.00 | 90 | 1019.1 |
| 20260903024521 | 17 | 87 | 0.0 | 0.0 | 0.00 | 0.00 | 0.00 | 90 | 1019.3 |
| 20260903023033 | 17 | 87 | 0.0 | 0.0 | 0.00 | 0.00 | 0.00 | 89 | 1019.4 |
| 20260903021520 | 17 | 87 | 0.0 | 0.0 | 0.00 | 0.00 | 0.00 | 89 | 1019.2 |
| 20260903020019 | 17 | 87 | 0.0 | 0.0 | 0.00 | 0.00 | 0.00 | 88 | 1019.4 |
| 20260903014522 | 17 | 87 | 0.0 | 0.0 | 0.00 | 0.00 | 0.00 | 87 | 1019.7 |
| 20260903013019 | 17 | 86 | 0.0 | 3.2 | 0.00 | 0.00 | 0.00 | 88 | 1019.5 |
| 20260903011521 | -17 | 0.0 | 0.0 | 0.00 | 0.00 | 0.00 | 1019.1 | ||
| 20260903010010 | 18 | 120 | 0.0 | 3.2 | 0.00 | 0.00 | 0.00 | 87 | 1019.3 |
| 20260903004509 | 18 | 150 | 0.0 | 3.2 | 0.00 | 0.00 | 0.00 | 87 | 1019.3 |
| 20260903003009 | 18 | 97 | 0.0 | 4.8 | 0.00 | 0.00 | 0.00 | 86 | 1019.4 |
| 20260903001519 | 18 | 123 | 0.0 | 6.4 | 0.00 | 0.00 | 0.00 | 85 | 1019.5 |
| 20260903000016 | 18 | 93 | 0.0 | 3.2 | 0.00 | 0.00 | 0.00 | 84 | 1019.6 |
| 20260902234507 | 18 | 117 | 0.0 | 4.8 | 0.00 | 0.00 | 0.00 | 82 | 1020.0 |
| 20260902233009 | 18 | 120 | 0.0 | 4.8 | 0.00 | 0.00 | 0.00 | 81 | 1020.1 |
| 20260902231511 | 18 | 102 | 0.0 | 3.2 | 0.00 | 0.00 | 0.00 | 79 | 1020.3 |
| 20260902230005 | 19 | 134 | 0.0 | 3.2 | 0.00 | 0.00 | 0.00 | 77 | 1020.1 |
| 20260902224508 | 19 | 110 | 0.0 | 4.8 | 0.00 | 0.00 | 0.00 | 75 | 1020.1 |
| 20260902223009 | 20 | 91 | 0.0 | 4.8 | 0.00 | 0.00 | 0.00 | 73 | 1020.6 |
| 20260902221505 | 20 | 170 | 0.0 | 3.2 | 0.00 | 0.00 | 0.00 | 71 | 1020.7 |
| 20260902220003 | 20 | 158 | 0.0 | 6.4 | 0.00 | 0.00 | 0.00 | 69 | 1020.5 |
| 20260902214501 | 20 | 77 | 0.0 | 8.0 | 0.00 | 0.03 | 0.00 | 67 | 1020.3 |
| 20260902213001 | 20 | 161 | 0.0 | 8.0 | 0.00 | 0.03 | 0.00 | 65 | 1020.5 |
| 20260902211559 | 20 | 122 | 0.0 | 6.4 | 0.00 | 0.03 | 0.00 | 66 | 1020.3 |
| 20260902210059 | 20 | 125 | 0.0 | 6.4 | 0.00 | 0.03 | 0.00 | 68 | 1020.0 |
| 20260902204607 | 21 | 125 | 0.0 | 8.0 | 0.00 | 0.03 | 0.00 | 66 | 1020.4 |
| 20260902203058 | 21 | 72 | 0.0 | 8.0 | 0.00 | 0.03 | 0.00 | 65 | 1020.5 |
| 20260902201623 | 21 | 146 | 1.6 | 8.0 | 0.00 | 0.03 | 0.00 | 64 | 1020.8 |
| 20260902200056 | 21 | 220 | 0.0 | 6.4 | 0.00 | 0.03 | 0.00 | 68 | 1020.9 |
| 20260902194555 | 21 | 123 | 1.6 | 11.3 | 0.00 | 0.10 | 0.00 | 69 | 1020.9 |
| 20260902193054 | 21 | 229 | 0.0 | 3.2 | 0.00 | 0.10 | 0.00 | 73 | 1021.0 |
| 20260902191554 | 21 | 240 | 0.0 | 4.8 | 0.00 | 0.10 | 0.00 | 73 | 1021.2 |
| 20260902190053 | 21 | 89 | 0.0 | 6.4 | 0.00 | 0.10 | 0.00 | 71 | 1021.2 |
| 20260902184553 | 21 | 99 | 0.0 | 6.4 | 0.00 | 0.25 | 0.00 | 68 | 1021.2 |
| 20260902183051 | 21 | 146 | 0.0 | 8.0 | 0.00 | 0.25 | 0.00 | 71 | 1021.3 |
| 20260902181550 | 21 | 152 | 0.0 | 8.0 | 0.00 | 0.25 | 0.00 | 72 | 1021.0 |
| 20260902180048 | 21 | 139 | 0.0 | 6.4 | 0.00 | 0.25 | 0.00 | 73 | 1021.1 |
| 20260902174552 | 21 | 142 | 1.6 | 6.4 | 0.00 | 0.28 | 0.00 | 75 | 1021.2 |
| 20260902173048 | 21 | 106 | 0.0 | 3.2 | 0.00 | 0.28 | 0.00 | 75 | 1021.2 |
| 20260902171548 | 21 | 26 | 0.0 | 3.2 | 0.00 | 0.28 | 0.00 | 75 | 1021.3 |
| 20260902170046 | 21 | 141 | 0.0 | 8.0 | 0.00 | 0.28 | 0.00 | 74 | 1021.5 |
| 20260902164547 | 20 | 88 | 0.0 | 4.8 | 0.00 | 0.28 | 0.00 | 78 | 1021.3 |
| 20260902163042 | 20 | 110 | 0.0 | 1.6 | 0.00 | 0.28 | 0.00 | 80 | 1021.7 |
| 20260902161541 | 20 | 122 | 0.0 | 6.4 | 0.00 | 0.28 | 0.00 | 81 | 1021.7 |
| 20260902160038 | 20 | 101 | 0.0 | 3.2 | 0.00 | 0.28 | 0.00 | 85 | 1022.0 |
| 20260902154536 | 20 | 140 | 0.0 | 4.8 | 0.00 | 0.28 | 0.00 | 87 | 1022.1 |
| 20260902153035 | 20 | 100 | 0.0 | 8.0 | 0.00 | 0.28 | 0.00 | 87 | 1022.2 |
| 20260902151533 | 20 | 136 | 0.0 | 4.8 | 0.00 | 0.28 | 0.00 | 89 | 1022.4 |
| 20260902150031 | 19 | 141 | 0.0 | 1.6 | 0.00 | 0.28 | 0.00 | 91 | 1022.5 |
| 20260902144532 | 19 | 134 | 0.0 | 4.8 | 0.00 | 0.28 | 0.00 | 92 | 1022.5 |
| 20260902143026 | 18 | 137 | 0.0 | 3.2 | 0.00 | 0.28 | 0.00 | 94 | 1022.2 |
| 20260902141531 | 18 | 166 | 0.0 | 6.4 | 0.00 | 0.28 | 0.00 | 94 | 1022.2 |
| 20260902140019 | 17 | 134 | 0.0 | 4.8 | 0.00 | 0.28 | 0.00 | 97 | 1021.7 |
| 20260902134518 | 17 | 121 | 0.0 | 1.6 | 0.00 | 0.33 | 0.00 | 98 | 1021.6 |
| 20260902133021 | 17 | 108 | 0.0 | 6.4 | 0.00 | 0.33 | 0.00 | 98 | 1021.6 |
| 20260902131512 | 17 | 167 | 0.0 | 6.4 | 0.00 | 0.33 | 0.00 | 99 | 1021.5 |
| 20260902130022 | 16 | 154 | 0.0 | 3.2 | 0.00 | 0.33 | 0.00 | 99 | 1021.9 |
| 20260902124511 | 16 | 162 | 0.0 | 1.6 | 0.00 | 0.69 | 0.00 | 99 | 1021.8 |
| 20260902123008 | 16 | 137 | 0.0 | 1.6 | 0.00 | 0.69 | 0.00 | 99 | 1021.9 |
| 20260902121506 | 16 | 161 | 0.0 | 0.0 | 0.00 | 0.69 | 0.00 | 99 | 1022.0 |
| 20260902120005 | 16 | 162 | 0.0 | 0.0 | 0.00 | 0.69 | 0.00 | 99 | 1022.1 |
| 20260902114507 | 16 | 162 | 0.0 | 0.0 | 0.00 | 0.69 | 0.00 | 99 | 1022.1 |
| 20260902113003 | 16 | 162 | 0.0 | 0.0 | 0.00 | 0.69 | 0.00 | 99 | 1022.2 |
| 20260902111501 | 16 | 162 | 0.0 | 0.0 | 0.00 | 0.69 | 0.00 | 99 | 1021.9 |
| 20260902110101 | 16 | 162 | 0.0 | 0.0 | 0.00 | 0.69 | 0.00 | 99 | 1021.8 |